Location: Unspecified
(0.0000°N, 0.0000°E)
Time: 23:47:49
(UTC+00:00)

STARLINK-31363 - Pass Details

Date: 06 May 2025
Orbit: 482 x 484 km, 43.0° (Epoch: 16 May)

Event Time Altitude Azimuth Distance (km) Brightness Sun altitude
Rises 18:35:00 0° 235° (SW) 2,531 7.6 -9.2°
Reaches altitude 10° 18:37:15 10° 242° (WSW) 1,650 6.7 -9.7°
Maximum altitude 18:40:50 43° 315° (NW) 680 4.6 -10.6°
Drops below altitude 10° 18:44:25 10° 27° (NNE) 1,644 5.9 -11.4°
Sets 18:46:39 0° 34° (NE) 2,520 6.8 -12.0°
